Yakima, WA

1:59 PM PST on January 21, 2017 (GMT -0800)
Vagabond Aaf / Yakim

Weather History for K1YT - April, 2014

Change the Weather History Date:

Monday, April 28, 2014

  Actual Average (KYKM) Record (KYKM)
Temperature  
Mean Temperature 44 °F -  
Max Temperature 62 °F 67 °F 89 °F (1987)
Min Temperature 28 °F 39 °F 27 °F (1984)
Degree Days  
Heating Degree Days 20    
Moisture  
Dew Point 25 °F    
Average Humidity 49    
Maximum Humidity 89    
Minimum Humidity 22    
Precipitation  
Precipitation 0.00 in - - ()
Sea Level Pressure  
Sea Level Pressure 30.26 in    
Wind  
Wind Speed 4 mph (SSE)    
Max Wind Speed 10 mph    
Max Gust Speed -    
Visibility 12 miles    
Events      
Averages and records for this station are not official NWS values.
T = Trace of Precipitation, MM = Missing Value Source: NWS Daily Summary

Daily Weather History Graph

Daily Weather History Graph

Search for Another Location

Airport or City:

Trip Planner

Search our weather history database for the weather conditions in past years. The results will help you decide how hot, cold, wet, or windy it might be!

Date:

Astronomy

Apr. 28, 2014 Rise Set
Actual Time 5:51 AM PDT 8:07 PM PDT
Civil Twilight 5:18 AM PDT 8:41 PM PDT
Nautical Twilight 4:37 AM PDT 9:22 PM PDT
Astronomical Twilight 3:50 AM PDT 10:09 PM PDT
Moon 5:36 AM PDT (4/28) 7:49 PM PDT (4/28)
Length of Visible Light 15h 22m
Length of Day
14h 15m
Waning Crescent, 0% of the Moon is Illuminated
Apr 28
Waning Crescent
Apr 28
New
May 6
First Quarter
May 14
Full
May 21
Last Quarter

Hourly Weather History & Observations

Time (PDT) Temp. Windchill Dew Point Humidity Pressure Visibility Wind Dir Wind Speed Gust Speed Precip Events Conditions
12:56 AM 36.3 °F - 29.3 °F 76% 30.08 in 12.0 mi Variable 2.3 mph - N/A   Scattered Clouds
1:56 AM 35.2 °F - 28.9 °F 78% 30.10 in 12.0 mi SSE 2.3 mph - N/A   Clear
2:56 AM 33.6 °F 29.4 °F 27.5 °F 78% 30.13 in 12.0 mi East 4.6 mph - N/A   Clear
3:56 AM 34.0 °F - 27.9 °F 78% 30.14 in 12.0 mi NNW 2.3 mph - N/A   Clear
4:56 AM 30.9 °F 26.2 °F 28.0 °F 89% 30.18 in 12.0 mi SW 4.6 mph - N/A   Clear
5:56 AM 28.4 °F - 24.6 °F 86% 30.20 in 12.0 mi Variable 1.2 mph - N/A   Clear
6:56 AM 32.7 °F 29.6 °F 28.4 °F 84% 30.22 in 12.0 mi East 3.5 mph - N/A   Clear
7:56 AM 39.0 °F - 28.9 °F 67% 30.25 in 12.0 mi Variable 1.2 mph - N/A   Clear
8:56 AM 45.7 °F - 29.8 °F 54% 30.26 in 12.0 mi Variable 2.3 mph - N/A   Clear
9:56 AM 49.3 °F - 26.2 °F 41% 30.27 in 12.0 mi Variable 2.3 mph - N/A   Clear
11:56 AM 55.4 °F - 25.3 °F 31% 30.28 in 12.0 mi NNW 5.8 mph - N/A   Clear
12:56 PM 57.6 °F - 23.9 °F 27% 30.28 in 12.0 mi Variable 4.6 mph - N/A   Clear
2:56 PM 59.4 °F - 19.9 °F 22% 30.29 in 12.0 mi Variable 5.8 mph - N/A   Clear
3:56 PM 60.3 °F - 21.6 °F 23% 30.29 in 12.0 mi SSW 4.6 mph - N/A   Clear
4:56 PM 60.8 °F - 21.2 °F 22% 30.29 in 12.0 mi Variable 6.9 mph - N/A   Clear
5:56 PM 61.0 °F - 23.5 °F 24% 30.30 in 12.0 mi Variable 5.8 mph - N/A   Clear
6:56 PM 60.1 °F - 22.8 °F 24% 30.31 in 12.0 mi SSW 4.6 mph - N/A   Clear
7:56 PM 54.3 °F - 24.8 °F 32% 30.32 in 12.0 mi South 4.6 mph - N/A   Clear
8:56 PM 51.6 °F - 23.2 °F 33% 30.35 in 12.0 mi SSE 10.4 mph - N/A   Clear
9:56 PM 52.5 °F - 19.8 °F 28% 30.37 in 12.0 mi SSE 9.2 mph - N/A   Scattered Clouds
10:56 PM 46.0 °F 43.9 °F 25.0 °F 44% 30.39 in 12.0 mi Variable 4.6 mph - N/A   Mostly Cloudy
11:56 PM 45.0 °F 43.5 °F 25.0 °F 46% 30.42 in 12.0 mi North 3.5 mph - N/A   Partly Cloudy